Location: Tehachapi Municipal Airport
(35.1300°N, 118.4400°W)
Time: 21:05:03
(UTC-07:00)

BREEZE M DEB (TANK) - Visible Passes

Search period start: 20 September 2014 00:00
Search period end: 30 September 2014 00:00
Orbit: 304 x 12197 km, 49.5° (Epoch: 19 September)

Date Brightness Start Highest point End Pass type
(mag) Time Alt. Az. Time Alt. Az. Time Alt. Az.
20 Sep 7.2 21:10:19 10° S 21:28:18 22° SSE 21:28:18 22° SSE visible
21 Sep 7.2 20:41:54 10° S 21:01:22 20° SE 21:01:22 20° SE visible
22 Sep 7.2 20:14:32 10° SSE 20:33:13 17° SE 20:34:25 17° SE visible
23 Sep 7.7 00:29:28 10° SW 00:29:55 11° SW 00:29:55 11° SW visible
23 Sep 7.2 19:48:47 10° SSE 20:02:57 14° SE 20:07:25 13° SE visible
23 Sep 7.4 23:57:50 10° SW 00:02:56 17° SW 00:02:56 17° SW visible
24 Sep 7.3 19:27:01 10° SE 19:32:31 11° SE 19:36:57 10° SE visible
24 Sep 7.2 23:26:07 10° SW 23:35:54 23° SW 23:35:54 23° SW visible
25 Sep 6.9 22:54:20 10° SW 23:08:50 29° SSW 23:08:50 29° SSW visible
26 Sep 6.7 22:22:36 10° SSW 22:41:44 35° SSW 22:41:44 35° SSW visible
27 Sep 6.5 21:50:57 10° SSW 22:14:36 39° S 22:14:36 39° S visible
28 Sep 6.3 21:19:32 10° SSW 21:47:25 41° SSE 21:47:25 41° SSE visible
29 Sep 2.9 06:03:17 10° NW 06:05:27 40° NE 06:09:09 10° ESE visible
29 Sep 6.2 20:48:24 10° SSW 21:20:12 39° SSE 21:20:12 39° SSE visible
